Rochelle, IL

10:29 AM CST on December 07, 2016 (GMT -0600)
Rochelle

Weather History for KRPJ - May, 2013

Change the Weather History Date:

Wednesday, May 29, 2013

  Actual Average (KRFD) Record (KRFD)
Temperature  
Mean Temperature 72 °F 64 °F  
Max Temperature 84 °F 76 °F 97 °F (1934)
Min Temperature 61 °F 53 °F 33 °F (1965)
Degree Days  
Heating Degree Days 0 3  
Month to date heating degree days 194  
Since 1 July heating degree days 6534  
Cooling Degree Days 7 3  
Month to date cooling degree days 41  
Year to date cooling degree days 49  
Growing Degree Days 22 (Base 50)    
Moisture  
Dew Point 64 °F    
Average Humidity 78    
Maximum Humidity 96    
Minimum Humidity 53    
Precipitation  
Precipitation 0.03 in 0.14 in 1.49 in (1935)
Month to date precipitation 3.71  
Year to date precipitation 12.16  
Snow  
Snow 0.00 in 0.00 in T in (1942)
Month to date snowfall 0.0  
Since 1 July snowfall 36.7  
Snow Depth -    
Sea Level Pressure  
Sea Level Pressure 29.88 in    
Wind  
Wind Speed 9 mph (South)    
Max Wind Speed 22 mph    
Max Gust Speed 29 mph    
Visibility 10 miles    
Events Rain    
T = Trace of Precipitation, MM = Missing Value Source: NWS Daily Summary

Daily Weather History Graph

Daily Weather History Graph

Search for Another Location

Airport or City:

Trip Planner

Search our weather history database for the weather conditions in past years. The results will help you decide how hot, cold, wet, or windy it might be!

Date:

Astronomy

May. 29, 2013 Rise Set
Actual Time 5:25 AM CDT 8:22 PM CDT
Civil Twilight 4:51 AM CDT 8:56 PM CDT
Nautical Twilight 4:09 AM CDT 9:38 PM CDT
Astronomical Twilight 3:20 AM CDT 10:28 PM CDT
Moon No Moon Rise 10:26 AM CDT (5/29)
Length of Visible Light 16h 04m
Length of Day
14h 57m
Waning Gibbous, 73% of the Moon is Illuminated
May 29
Waning Gibbous
May 31
Last Quarter
Jun 8
New
Jun 16
First Quarter
Jun 23
Full

Hourly Weather History & Observations

Time (CDT) Temp. Heat Index Dew Point Humidity Pressure Visibility Wind Dir Wind Speed Gust Speed Precip Events Conditions
12:15 AM 67.1 °F - 63.5 °F 88% 29.83 in 10.0 mi SSW 17.3 mph - N/A   Clear
12:35 AM 67.1 °F - 63.0 °F 87% 29.81 in 10.0 mi South 16.1 mph - N/A Rain Light Rain
12:55 AM 66.7 °F - 63.5 °F 89% 29.78 in 10.0 mi South 13.8 mph - N/A Rain Light Rain
1:15 AM 66.2 °F - 61.9 °F 86% 29.78 in 10.0 mi SSW 9.2 mph - N/A   Clear
1:35 AM 64.9 °F - 61.0 °F 87% 29.77 in 10.0 mi South 9.2 mph - N/A   Clear
1:55 AM 64.4 °F - 60.8 °F 88% 29.84 in 10.0 mi WNW 17.3 mph 20.7 mph N/A   Clear
2:15 AM 64.4 °F - 60.6 °F 88% 29.83 in 10.0 mi NW 6.9 mph - N/A   Clear
2:35 AM 63.7 °F - 60.4 °F 89% 29.83 in 10.0 mi Calm Calm - N/A   Clear
2:55 AM 61.9 °F - 59.7 °F 93% 29.82 in 10.0 mi Calm Calm - N/A   Clear
3:15 AM 61.7 °F - 59.9 °F 94% 29.83 in 10.0 mi Calm Calm - N/A   Clear
3:35 AM 61.7 °F - 59.9 °F 94% 29.83 in 10.0 mi Calm Calm - N/A   Clear
3:55 AM 61.3 °F - 59.9 °F 95% 29.84 in 10.0 mi Calm Calm - N/A   Clear
4:15 AM 61.2 °F - 59.9 °F 96% 29.86 in 7.0 mi SW 3.5 mph - N/A   Clear
4:35 AM 61.3 °F - 59.9 °F 95% 29.89 in 10.0 mi SSW 8.1 mph - N/A   Clear
4:55 AM 62.6 °F - 59.5 °F 90% 29.91 in 10.0 mi SW 11.5 mph - N/A   Clear
5:15 AM 64.4 °F - 59.4 °F 84% 29.90 in 10.0 mi SW 21.9 mph 28.8 mph N/A   Mostly Cloudy
5:35 AM 63.1 °F - 60.1 °F 90% 29.86 in 10.0 mi South 8.1 mph - 0.02 in Rain Light Rain
5:55 AM 62.2 °F - 59.9 °F 92% 29.85 in 10.0 mi South 8.1 mph - 0.02 in   Scattered Clouds
6:15 AM 62.6 °F - 59.9 °F 91% 29.82 in 10.0 mi ESE 6.9 mph - N/A   Scattered Clouds
6:35 AM 62.6 °F - 59.9 °F 91% 29.84 in 10.0 mi Calm Calm - N/A   Scattered Clouds
6:55 AM 62.6 °F - 60.1 °F 91% 29.87 in 10.0 mi Calm Calm - N/A Rain Light Rain
7:15 AM 62.6 °F - 60.4 °F 93% 29.92 in 10.0 mi WSW 12.7 mph - N/A Rain Light Rain
7:35 AM 63.0 °F - 60.8 °F 93% 29.94 in 7.0 mi West 10.4 mph - 0.01 in Rain Light Rain
7:55 AM 63.5 °F - 60.8 °F 91% 29.94 in 10.0 mi Calm Calm - 0.01 in Rain Light Rain
8:15 AM 64.4 °F - 61.2 °F 89% 29.93 in 10.0 mi Calm Calm - N/A   Scattered Clouds
8:35 AM 65.3 °F - 61.0 °F 86% 29.94 in 10.0 mi Calm Calm - N/A   Scattered Clouds
8:55 AM 65.8 °F - 61.0 °F 84% 29.94 in 10.0 mi Calm Calm - N/A   Scattered Clouds
9:15 AM 66.4 °F - 60.4 °F 81% 29.95 in 10.0 mi Calm Calm - N/A   Light Drizzle
9:35 AM 66.7 °F - 61.2 °F 82% 29.94 in 10.0 mi Calm Calm - N/A   Scattered Clouds
9:55 AM 68.4 °F - 62.2 °F 81% 29.93 in 10.0 mi Calm Calm - N/A   Mostly Cloudy
10:15 AM 69.3 °F - 63.0 °F 80% 29.93 in 10.0 mi Calm Calm - N/A   Mostly Cloudy
10:35 AM 71.1 °F - 63.5 °F 77% 29.93 in 10.0 mi Calm Calm - N/A   Clear
10:55 AM 72.5 °F - 64.6 °F 76% 29.94 in 10.0 mi South 5.8 mph - N/A   Clear
11:15 AM 73.6 °F - 65.1 °F 75% 29.94 in 10.0 mi South 9.2 mph - N/A   Scattered Clouds
11:35 AM 74.3 °F - 66.0 °F 75% 29.93 in 10.0 mi South 8.1 mph - N/A   Scattered Clouds
11:55 AM 74.7 °F - 66.9 °F 77% 29.93 in 10.0 mi South 11.5 mph 16.1 mph N/A   Mostly Cloudy
12:15 PM 75.6 °F - 67.1 °F 75% 29.93 in 10.0 mi South 9.2 mph 16.1 mph N/A   Mostly Cloudy
12:35 PM 77.2 °F - 67.8 °F 73% 29.92 in 10.0 mi South 8.1 mph - N/A   Scattered Clouds
12:55 PM 78.4 °F - 67.8 °F 70% 29.92 in 10.0 mi SSW 8.1 mph - N/A   Scattered Clouds
1:15 PM 79.3 °F - 66.7 °F 65% 29.92 in 10.0 mi SSW 11.5 mph - N/A   Scattered Clouds
1:35 PM 79.5 °F - 67.6 °F 67% 29.92 in 10.0 mi South 11.5 mph 18.4 mph N/A   Scattered Clouds
1:55 PM 79.7 °F - 67.3 °F 66% 29.92 in 10.0 mi South 10.4 mph 18.4 mph N/A   Scattered Clouds
2:15 PM 80.8 °F 83.5 °F 68.2 °F 65% 29.91 in 10.0 mi South 9.2 mph - N/A   Scattered Clouds
2:35 PM 81.3 °F 84.0 °F 67.6 °F 63% 29.90 in 10.0 mi South 11.5 mph - N/A   Clear
2:55 PM 82.4 °F 85.0 °F 67.5 °F 60% 29.90 in 10.0 mi SSW 9.2 mph 16.1 mph N/A   Scattered Clouds
3:15 PM 83.1 °F 85.9 °F 67.3 °F 59% 29.90 in 10.0 mi South 12.7 mph 16.1 mph N/A   Scattered Clouds
3:35 PM 83.3 °F 86.2 °F 67.5 °F 59% 29.89 in 10.0 mi SSE 10.4 mph 17.3 mph N/A   Scattered Clouds
3:55 PM 83.8 °F 86.3 °F 66.6 °F 56% 29.88 in 10.0 mi South 9.2 mph 17.3 mph N/A   Scattered Clouds
4:15 PM 82.6 °F 84.3 °F 65.1 °F 55% 29.87 in 10.0 mi South 15.0 mph 18.4 mph N/A   Scattered Clouds
4:35 PM 83.7 °F 85.3 °F 64.8 °F 53% 29.86 in 10.0 mi South 15.0 mph - N/A   Scattered Clouds
4:55 PM 83.7 °F 85.8 °F 66.0 °F 55% 29.86 in 10.0 mi SSE 13.8 mph 19.6 mph N/A   Mostly Cloudy
5:15 PM 83.3 °F 84.8 °F 64.4 °F 53% 29.86 in 10.0 mi SSE 18.4 mph 21.9 mph N/A   Scattered Clouds
5:35 PM 83.1 °F 85.2 °F 65.8 °F 56% 29.85 in 10.0 mi South 20.7 mph 26.5 mph N/A   Clear
5:55 PM 82.9 °F 84.8 °F 65.3 °F 55% 29.86 in 10.0 mi South 17.3 mph 25.3 mph N/A   Scattered Clouds
6:15 PM 83.3 °F 85.1 °F 65.1 °F 54% 29.86 in 10.0 mi South 17.3 mph 21.9 mph N/A   Scattered Clouds
6:35 PM 81.0 °F 83.0 °F 65.7 °F 60% 29.86 in 10.0 mi South 15.0 mph 24.2 mph N/A   Scattered Clouds
6:55 PM 80.1 °F 82.2 °F 66.4 °F 63% 29.87 in 10.0 mi South 12.7 mph - N/A   Scattered Clouds
7:15 PM 79.3 °F - 66.4 °F 64% 29.86 in 10.0 mi South 11.5 mph - N/A   Clear
7:35 PM 78.4 °F - 66.2 °F 66% 29.87 in 10.0 mi South 8.1 mph - N/A   Clear
7:55 PM 77.4 °F - 66.4 °F 69% 29.87 in 10.0 mi South 6.9 mph - N/A   Clear
8:15 PM 75.4 °F - 67.1 °F 75% 29.86 in 10.0 mi SSE 5.8 mph - N/A   Clear
8:35 PM 75.2 °F - 67.1 °F 76% 29.86 in 10.0 mi SSE 8.1 mph - N/A   Clear
8:55 PM 74.3 °F - 66.9 °F 78% 29.86 in 10.0 mi SSE 6.9 mph - N/A   Clear
9:15 PM 73.8 °F - 66.7 °F 79% 29.86 in 10.0 mi SSE 6.9 mph - N/A   Clear
9:35 PM 73.0 °F - 66.6 °F 80% 29.87 in 10.0 mi SSE 6.9 mph - N/A   Clear
9:55 PM 72.9 °F - 66.6 °F 81% 29.88 in 10.0 mi SSE 8.1 mph - N/A   Clear
10:15 PM 72.0 °F - 66.7 °F 84% 29.89 in 10.0 mi SSE 6.9 mph - N/A   Clear
10:35 PM 73.2 °F - 66.6 °F 80% 29.89 in 10.0 mi SSE 9.2 mph - N/A   Clear
10:55 PM 72.9 °F - 66.4 °F 80% 29.90 in 10.0 mi South 9.2 mph - N/A   Clear
11:15 PM 72.3 °F - 66.4 °F 82% 29.91 in 10.0 mi SSE 9.2 mph - N/A   Clear
11:35 PM 71.4 °F - 66.2 °F 84% 29.91 in 10.0 mi SSE 8.1 mph - N/A   Clear
11:55 PM 70.0 °F - 65.7 °F 86% 29.91 in 10.0 mi SSE 5.8 mph - N/A   Clear